[[{"header":{"parameterUnit":"m.s-1","parameterCategory":1,"la1":30.2991,"la2":30.254,"lo1":-89.0895,"lo2":-89.0444,"dy":0.0017,"dx":0.0017,"nx":28,"ny":28,"refTime":"2024-06-02T03:00:00:Z","depth":0,"parameterNumber":2,"parameterNumberName":"U-component_of_WINDS"},"data":[0,0,0,0,0,0,0,0,0,0,0,0,0,0,0,0,0,0,0,0,0,0,0,0,0,0,0,0,0,0,0,0,0,0,0,0,0,0,0,0,0,0,0,0,0,0,0,0,0,0,0,0,0,0,0,0,0,0,-3.3011,-3.3016,0,-3.3561,-3.3568,-3.3574,-3.391,-3.3912,-3.3914,-3.3915,-3.4488,-3.4501,-3.4514,0,0,0,0,0,0,0,0,0,0,0,0,0,-3.2262,-3.2274,-3.301,-3.3017,-3.3024,-3.356,-3.3568,-3.3576,-3.391,-3.3912,-3.3914,-3.3916,-3.4483,-3.4499,-3.4516,0,0,0,0,0,0,0,0,0,0,0,0,0,-3.2677,-3.2278,-3.3009,-3.3255,-3.3283,-3.3559,-3.3568,-3.3578,-3.3909,-3.3912,-3.3914,-3.3917,-3.4478,-3.4498,-3.4518,-3.4595,0,0,-3.4581,-3.459,0,0,0,0,0,0,0,0,-3.2653,-3.2704,-3.3212,-3.3239,-3.327,-3.3669,-3.3515,-3.3919,-3.3909,-3.3672,-3.3915,-3.3918,-3.4214,-3.4256,-3.4355,-3.4621,-3.4646,-3.4582,-3.4595,-3.4604,-3.461,0,0,0,0,0,0,0,-3.2624,-3.2683,-3.3229,-3.3219,-3.3255,-3.3343,-3.3405,-3.3593,-3.3922,-3.3693,-3.3718,-3.3778,-3.423,-3.4334,-3.437,-3.4654,-3.4582,-3.46,-3.4613,-3.4621,-3.5019,-3.5018,0,0,0,0,0,0,-3.2554,-3.2656,-3.3211,-3.3245,-3.2961,-3.3354,-3.3423,-3.3539,-3.3921,-3.3982,-3.3776,-3.3792,-3.4298,-3.4346,-3.4392,-3.4511,-3.4604,-3.4623,-3.4635,-3.5021,-3.5019,-3.5017,0,0,0,0,0,0,-3.2537,-3.2601,-3.3189,-3.2958,-3.304,-3.3364,-3.3491,-3.3548,-3.3652,-3.3984,-3.4046,-3.382,-3.4301,-3.4363,-3.4543,-3.4535,-3.4632,-3.4651,-3.5023,-3.502,-3.5018,-3.4744,0,0,0,0,0,0,-3.2514,-3.2592,-3.2621,-3.2956,-3.305,-3.3325,-3.3491,-3.3557,-3.3686,-3.3712,-3.4042,-3.4099,-3.4308,-3.451,-3.4563,-3.4565,-3.4667,-3.5025,-3.5022,-3.5019,-3.4756,-3.4733,-3.4713,0,0,0,0,0,-3.2486,-3.2523,-3.2621,-3.2686,-3.3093,-3.3324,-3.3379,-3.3616,-3.3683,-3.3718,-3.3932,-3.4088,-3.4527,-3.4526,-3.4588,-3.4596,-3.5027,-3.5023,-3.5019,-3.4765,-3.4737,-3.4714,0,0,0,0,0,0,-3.2181,-3.2571,-3.2684,-3.2829,-3.304,-3.338,-3.343,-3.3579,-3.3778,-3.3795,-3.4084,-3.4156,-3.4308,-3.4471,-3.4462,-3.4694,-3.4795,-3.4804,-3.4581,-3.4557,-3.4536,-3.4494,-3.4684,0,0,0,0,0,-3.213,-3.2281,-3.2616,-3.2713,-3.2813,-3.3102,-3.3212,-3.3377,-3.3609,-3.3701,-3.3929,-3.415,-3.434,-3.4458,-3.465,-3.4782,-3.4861,-3.4819,-3.4797,-3.4778,-3.4782,-3.4869,-3.4855,-3.5004,-3.5004,-3.5005,0,0,-3.2028,-3.226,-3.2338,-3.2657,-3.284,-3.2995,-3.3175,-3.3331,-3.345,-3.3726,-3.3909,-3.4084,-3.4352,-3.4509,-3.459,-3.4649,-3.4759,-3.4773,-3.4755,-3.4771,-3.4863,-3.4849,-3.4836,-3.5002,-3.5002,-3.5003,0,0,-3.192,-3.2109,-3.2211,-3.2392,-3.2666,-3.286,-3.2883,-3.3203,-3.3329,-3.3517,-3.3729,-3.3877,-3.4195,-3.4378,-3.4513,-3.4479,-3.4632,-3.4534,-3.4423,-3.4505,-3.4493,-3.4484,-3.4475,-3.4467,-3.4537,-3.4537,-3.4536,0,-3.1759,-3.1996,-3.2246,-3.239,-3.2527,-3.2782,-3.2891,-3.3056,-3.3379,-3.347,-3.3532,-3.394,-3.4138,-3.4343,-3.4335,-3.4435,-3.4475,-3.4497,-3.4473,-3.4467,-3.4463,-3.4457,-3.4453,-3.4523,-3.4525,-3.4526,-3.4527,0,-3.1786,-3.1948,-3.1999,-3.2302,-3.2445,-3.257,-3.2845,-3.296,-3.3114,-3.3302,-3.3494,-3.3741,-3.3989,-3.4051,-3.4203,-3.428,-3.4309,-3.4418,-3.4526,-3.443,-3.443,-3.443,-3.4503,-3.4508,-3.4512,-3.4516,0,0,-3.15,-3.1941,-3.1956,-3.2099,-3.2422,-3.2555,-3.2695,-3.2936,-3.303,-3.3247,-3.3375,-3.364,-3.3745,-3.3897,-3.4074,-3.4144,-3.4106,-3.4248,-3.4259,-3.4214,-3.4211,-3.4126,-3.4119,-3.421,-3.4211,-3.4211,-3.4189,0,-3.1441,-3.1699,-3.193,-3.2107,-3.2262,-3.251,-3.2633,-3.2847,-3.3028,-3.319,-3.3393,-3.3577,-3.3699,-3.3794,-3.3875,-3.4092,-3.4109,-3.4098,-3.4335,-3.434,-3.4259,-3.4119,-3.4029,-3.3996,-3.419,-3.419,-3.419,0,-3.1406,-3.1609,-3.1798,-3.211,-3.2185,-3.229,-3.2532,-3.2682,-3.2933,-3.3061,-3.3231,-3.3417,-3.3582,-3.3673,-3.3907,-3.3894,-3.4006,-3.4128,-3.4133,-3.4164,-3.4258,-3.4147,-3.3991,-3.3985,-3.4192,-3.4192,-3.4192,0,-3.118,-3.1502,-3.1658,-3.1773,-3.2139,-3.2208,-3.2365,-3.2618,-3.2749,-3.2963,-3.3052,-3.3281,-3.3407,-3.3583,-3.3828,-3.3871,-3.4038,-3.4149,-3.4151,-3.4145,-3.4175,-3.4169,-3.4034,-3.4244,-3.4244,-3.4244,-3.4244,0,-3.109,-3.1197,-3.1562,-3.1657,-3.1787,-3.2055,-3.2178,-3.2358,-3.2581,-3.2721,-3.2951,-3.3078,-3.3393,-3.3559,-3.3753,-3.3919,-3.3974,-3.4085,-3.4135,-3.4064,-3.405,-3.4141,-3.415,-3.4243,-3.4244,-3.4244,-3.4244,0,-3.0859,-3.1106,-3.1294,-3.1625,-3.1712,-3.1793,-3.208,-3.2186,-3.2381,-3.2555,-3.2611,-3.2918,-3.3127,-3.3388,-3.368,-3.3811,-3.3957,-3.4033,-3.387,-3.39,-3.3889,-3.3886,-3.3808,-3.3813,-3.4015,-3.4013,-3.4011,0,-3.0785,-3.0873,-3.1214,-3.1322,-3.147,-3.1642,-3.1777,-3.2046,-3.2178,-3.2473,-3.2544,-3.2769,-3.2964,-3.3286,-3.3538,-3.3765,-3.3849,-3.3806,-3.3884,-3.3812,-3.3851,-3.3842,-3.3855,-3.3785,-3.3781,-3.3778,-3.3776,0,-3.0629,-3.0748,-3.0931,-3.1157,-3.131,-3.1503,-3.1706,-3.1783,-3.2096,-3.2234,-3.2448,-3.2598,-3.2897,-3.312,-3.3379,-3.3548,-3.3715,-3.375,-3.3763,-3.3692,-3.3594,-3.3649,-3.3817,-3.375,-3.3753,-3.3755,-3.3756,-3.3757,-3.0478,-3.0568,-3.0822,-3.1019,-3.12,-3.1385,-3.1501,-3.171,-3.1892,-3.2153,-3.2304,-3.2513,-3.2769,-3.3134,-3.3296,-3.3468,-3.353,-3.3548,-3.3553,-3.3554,-3.3532,-3.3566,-3.3517,-3.3518,-3.3519,-3.352,-3.3521,0,-3.0336,-3.0511,-3.0689,-3.0965,-3.1121,-3.1262,-3.1496,-3.1619,-3.1799,-3.2021,-3.2208,-3.2457,-3.2675,-3.2944,-3.3182,-3.3268,-3.3352,-3.3322,-3.3318,-3.3355,-3.3462,-3.3428,-3.325,-3.325,-3.325,-3.325,-3.325,-3.325,-3.028,-3.0441,-3.059,-3.0846,-3.1025,-3.1228,-3.135,-3.1524,-3.1703,-3.1968,-3.2149,-3.2323,-3.2567,-3.2824,-3.3032,-3.3107,-3.3185,-3.3131,-3.3229,-3.3324,-3.3347,-3.337,-3.3339,-3.3146,-3.3145,-3.3109,-3.3108,-3.3108]},{"header":{"parameterUnit":"m.s-1","parameterCategory":1,"la1":30.2991,"la2":30.254,"lo1":-89.0895,"lo2":-89.0444,"dy":0.0017,"dx":0.0017,"nx":28,"ny":28,"refTime":"2024-06-02T03:00:00:Z","depth":0,"parameterNumber":3,"parameterNumberName":"V-component_of_WINDS"},"data":[0,0,0,0,0,0,0,0,0,0,0,0,0,0,0,0,0,0,0,0,0,0,0,0,0,0,0,0,0,0,0,0,0,0,0,0,0,0,0,0,0,0,0,0,0,0,0,0,0,0,0,0,0,0,0,0,0,0,4.7432,4.7431,0,4.7325,4.7324,4.7322,4.713,4.7126,4.7122,4.7119,4.7011,4.7011,4.7012,0,0,0,0,0,0,0,0,0,0,0,0,0,4.7472,4.7473,4.7432,4.7431,4.7429,4.7325,4.7323,4.7322,4.713,4.7126,4.7121,4.7117,4.701,4.7011,4.7012,0,0,0,0,0,0,0,0,0,0,0,0,0,4.7419,4.7473,4.7432,4.7321,4.731,4.7325,4.7323,4.7322,4.7131,4.7126,4.712,4.7115,4.701,4.7011,4.7012,4.7127,0,0,4.7014,4.7015,0,0,0,0,0,0,0,0,4.7423,4.7418,4.7339,4.7329,4.7316,4.7235,4.7298,4.7257,4.7133,4.7199,4.7119,4.7112,4.709,4.7084,4.7076,4.7122,4.7118,4.7014,4.7015,4.7015,4.7015,0,0,0,0,0,0,0,4.7426,4.7422,4.7389,4.7338,4.7324,4.7277,4.7263,4.7289,4.7177,4.7193,4.7179,4.7169,4.7083,4.7075,4.7072,4.7116,4.7014,4.7015,4.7016,4.7016,4.7255,4.7261,0,0,0,0,0,0,4.7446,4.7426,4.7393,4.7386,4.7357,4.7281,4.7266,4.7267,4.7176,4.7157,4.7173,4.716,4.7077,4.7071,4.7067,4.72,4.7015,4.7016,4.7016,4.725,4.7257,4.7263,0,0,0,0,0,0,4.7448,4.7445,4.7397,4.7402,4.7392,4.7286,4.7289,4.7267,4.726,4.7161,4.714,4.7187,4.7072,4.7066,4.7115,4.7194,4.7016,4.7017,4.7243,4.7252,4.726,4.7465,0,0,0,0,0,0,4.745,4.7447,4.7489,4.7405,4.7393,4.7447,4.7293,4.7269,4.7262,4.7243,4.7168,4.715,4.7067,4.7114,4.7116,4.7191,4.7018,4.7235,4.7247,4.7257,4.7451,4.748,4.7505,0,0,0,0,0,4.7452,4.7551,4.7492,4.749,4.7444,4.7451,4.7445,4.7347,4.7269,4.7312,4.7248,4.7153,4.7184,4.7121,4.712,4.7198,4.723,4.7243,4.7256,4.7439,4.7474,4.7504,0,0,0,0,0,0,4.7648,4.7538,4.7472,4.7546,4.751,4.7419,4.747,4.7387,4.7372,4.7356,4.7234,4.7219,4.7285,4.7245,4.7177,4.7307,4.7192,4.7206,4.7331,4.7364,4.739,4.7401,4.7018,0,0,0,0,0,4.77,4.7715,4.7617,4.7693,4.7678,4.7578,4.7577,4.7505,4.7462,4.7446,4.7386,4.7349,4.735,4.7354,4.7349,4.7443,4.7426,4.7496,4.7523,4.7545,4.756,4.761,4.7642,4.7306,4.7306,4.7306,0,0,4.7808,4.7749,4.7766,4.7731,4.7694,4.7714,4.7566,4.7592,4.7606,4.7449,4.7493,4.7448,4.7398,4.7471,4.75,4.744,4.7648,4.7562,4.7581,4.7583,4.7627,4.7659,4.7688,4.7315,4.7314,4.7312,0,0,4.8015,4.7971,4.803,4.7997,4.7942,4.7875,4.789,4.7811,4.7776,4.7817,4.7701,4.7715,4.7719,4.769,4.7676,4.7873,4.7786,4.7874,4.8017,4.8067,4.8094,4.8117,4.8191,4.8219,4.7888,4.7889,4.7889,0,4.8157,4.8181,4.8072,4.8106,4.8096,4.7954,4.8015,4.7987,4.7935,4.7932,4.7864,4.7868,4.7824,4.7891,4.7939,4.793,4.7946,4.7885,4.8098,4.812,4.814,4.821,4.8238,4.79,4.7899,4.7898,4.7897,0,4.836,4.8378,4.8433,4.8387,4.8381,4.8429,4.8328,4.8335,4.8263,4.8204,4.8249,4.8191,4.8175,4.8183,4.8113,4.824,4.8205,4.812,4.8003,4.8186,4.825,4.8275,4.7917,4.7913,4.7909,4.7906,0,0,4.8692,4.8584,4.8606,4.8585,4.8514,4.8527,4.8569,4.8552,4.8563,4.8531,4.8565,4.8572,4.8493,4.8477,4.8402,4.8445,4.8611,4.8355,4.8352,4.8409,4.8753,4.8821,4.8854,4.8551,4.8555,4.8559,4.8759,0,4.8888,4.8953,4.8856,4.8944,4.8962,4.8827,4.8863,4.8825,4.877,4.8778,4.8716,4.8725,4.8618,4.8608,4.8645,4.8583,4.8679,4.8566,4.8585,4.8587,4.8607,4.8886,4.8958,4.915,4.8782,4.8786,4.8789,0,4.9126,4.9107,4.9198,4.9124,4.9127,4.9162,4.914,4.9148,4.9102,4.9059,4.9043,4.8953,4.899,4.8874,4.8925,4.8851,4.8851,4.8822,4.8827,4.8829,4.8703,4.8901,4.9207,4.9239,4.8827,4.8824,4.8821,0,4.9366,4.9362,4.9416,4.9401,4.9315,4.9343,4.9309,4.9257,4.9254,4.9234,4.9232,4.9217,4.921,4.9201,4.9111,4.9033,4.9175,4.905,4.9143,4.9146,4.9183,4.9183,4.95,4.9176,4.9175,4.9175,4.9174,0,4.9599,4.9661,4.9523,4.9557,4.9623,4.951,4.9578,4.953,4.9485,4.9509,4.939,4.9415,4.9291,4.9303,4.9231,4.9288,4.9284,4.9252,4.9234,4.9266,4.9271,4.9269,4.9255,4.9182,4.9181,4.9179,4.9178,0,4.988,4.9789,4.984,4.9754,4.9734,4.9787,4.9714,4.9743,4.9679,4.971,4.9711,4.9612,4.962,4.9528,4.9517,4.9469,4.956,4.9515,4.9576,4.9564,4.9665,4.9659,4.9995,5.0035,4.9682,4.9686,4.9688,0,5.0037,5.0081,5.0,5.0007,4.9979,4.9991,4.9987,4.9877,4.9878,4.983,4.9866,4.9864,4.9857,4.9876,4.9805,4.9797,4.9754,4.9872,4.9752,4.9784,4.9762,4.9762,4.9768,4.9899,4.9904,4.9907,4.991,0,5.0327,5.028,5.0279,5.0263,5.0262,5.0244,5.0218,5.0231,5.0111,5.0119,5.0126,5.012,5.011,5.0111,5.009,5.0054,4.9965,4.9948,4.997,5.0006,5.0042,5.0029,4.965,4.9942,4.9939,4.9936,4.9935,4.9933,5.0554,5.0588,5.0537,5.054,5.0509,5.0488,5.0512,5.0451,5.0455,5.0438,5.0372,5.0392,5.0345,5.0307,5.0281,5.0295,5.0238,5.0269,5.0277,5.0288,5.0309,5.0036,5.029,5.0289,5.0288,5.0287,5.0287,0,5.0842,5.0802,5.0806,5.0774,5.0777,5.0689,5.0656,5.0666,5.0684,5.0648,5.0644,5.0653,5.0653,5.0581,5.0573,5.0599,5.0558,5.0601,5.06,5.0595,5.0358,5.0342,5.0635,5.0635,5.0635,5.0635,5.0634,5.0634,5.0993,5.1048,5.0995,5.1034,5.0993,5.1011,5.1,5.0981,5.0952,5.0968,5.0967,5.0919,5.087,5.0857,5.0855,5.0833,5.0838,5.0897,5.0863,5.0644,5.0611,5.0579,5.0564,5.0898,5.0898,5.1098,5.11,5.1102]}]]